Date String (YYYY-MM-DD hh:mm:ss) UTC,Instrument flags,absolute air pressure of the measurement (hPa),sample flow rate (lpm),inlet stack bypass flow (lpm),air temperature of the measurement (°C),ambient temperature measured by the external sensor (°C),aerosol sample conditioner tube jacket temperature (°C),OPC LED temperature (°C),internal box temperature (°C),relative humidity of the measurement (%),span deviation,mass concentration of particles derived from Lorenz-Mie calculation of OPC scattering (μg/m³),mass concentration of particles derived from Lorenz-Mie calculation of OPC scattering (μg/m³),mass concentration of particles derived from Lorenz-Mie calculation of OPC scattering (μg/m³)
DateTimeUTC,F1_M11,P_M11,Q1_M11,Q2_M11,T1_M11,T2_M11,T3_M11,T4_M11,T5_M11,U1_M11,ZSPAN_M11,X2_M11,X0_M11,X1_M11
2023-10-26 11:00:00,SystemResetWarning,0823.3,5.00,000.00,028.9,027.6,000.0,037.4,030.6,21.2,-001.4,0010.98,0019.96,0009.41
2023-10-26 11:01:00,SystemResetWarning,0823.3,5.00,000.00,028.9,027.6,000.0,037.4,030.6,21.1,-001.5,0011.09,0020.53,0009.44
2023-10-26 11:02:00,SystemResetWarning,0823.3,5.00,000.00,028.9,027.6,000.0,037.4,030.6,21.1,-001.5,0011.15,0019.99,0009.50
2023-10-26 11:03:00,SystemResetWarning,0823.3,5.00,000.00,028.9,027.6,000.0,037.4,030.6,21.1,-001.1,0011.19,0019.69,0009.58
2023-10-26 11:04:00,SystemResetWarning,0823.3,5.00,000.00,028.9,027.6,000.0,037.4,030.6,21.0,-001.1,0011.28,0019.77,0009.67
2023-10-26 11:05:00,SystemResetWarning,0823.3,5.00,000.00,028.9,027.6,000.0,037.4,030.6,21.0,-001.3,0011.39,0019.68,0009.77
2023-10-26 11:06:00,SystemResetWarning,0823.3,5.00,000.00,028.9,027.6,000.0,037.4,030.6,20.9,-001.2,0011.54,0020.60,0009.86
2023-10-26 11:07:00,SystemResetWarning,0823.2,5.00,000.00,028.9,027.6,000.0,037.4,030.5,20.9,-001.2,0011.61,0020.62,0009.91
2023-10-26 11:08:00,SystemResetWarning,0823.2,5.01,000.00,028.9,027.6,000.0,037.4,030.5,20.8,-001.3,0011.69,0020.71,0009.97
2023-10-26 11:09:00,SystemResetWarning,0823.1,5.01,000.00,028.9,027.6,000.0,037.4,030.6,20.8,-001.3,0011.80,0021.49,0010.04
2023-10-26 11:10:00,SystemResetWarning,0823.2,5.00,000.00,028.9,027.6,000.0,037.4,030.6,20.7,-001.3,0011.96,0021.93,0010.12
2023-10-26 11:11:00,SystemResetWarning,0823.2,5.00,000.00,028.9,027.6,000.0,037.4,030.6,20.7,-001.3,0012.00,0022.26,0010.19
2023-10-26 11:12:00,SystemResetWarning,0823.1,4.99,000.00,028.9,027.6,000.0,037.4,030.6,20.6,-001.3,0011.98,0022.52,0010.25
2023-10-26 11:13:00,SystemResetWarning,0823.1,5.00,000.00,028.9,027.6,000.0,037.4,030.6,20.6,-001.2,0011.95,0023.06,0010.30
2023-10-26 11:14:00,SystemResetWarning,0823.1,5.00,000.00,028.9,027.5,000.0,037.4,030.6,20.7,-001.3,0011.96,0022.22,0010.33
2023-10-26 11:15:00,SystemResetWarning,0823.2,5.00,000.00,028.9,027.5,000.0,037.4,030.6,20.8,-001.6,0011.90,0022.64,0010.32
2023-10-26 11:16:00,SystemResetWarning,0823.1,5.00,000.00,028.9,027.5,000.0,037.4,030.5,20.8,-001.7,0011.87,0022.93,0010.31
2023-10-26 11:17:00,SystemResetWarning,0823.1,5.00,000.00,028.9,027.4,000.0,037.4,030.5,20.8,-001.9,0011.81,0023.31,0010.27
2023-10-26 11:18:00,SystemResetWarning,0823.1,5.00,000.00,028.9,027.4,000.0,037.4,030.5,20.8,-002.1,0011.80,0023.98,0010.26
2023-10-26 11:19:00,SystemResetWarning,0823.2,5.01,000.00,028.9,027.4,000.0,037.4,030.5,20.8,-002.1,0011.76,0023.96,0010.23
2023-10-26 11:20:00,SystemResetWarning,0823.3,5.00,000.00,028.9,027.4,000.0,037.4,030.5,20.8,-002.3,0011.67,0024.23,0010.19
2023-10-26 11:21:00,SystemResetWarning,0823.3,5.00,000.00,028.9,027.4,000.0,037.4,030.5,20.9,-002.4,0011.61,0024.63,0010.15
2023-10-26 11:22:00,SystemResetWarning,0823.2,4.99,000.00,028.9,027.4,000.0,037.4,030.5,21.1,-002.3,0011.55,0024.14,0010.11
2023-10-26 11:23:00,SystemResetWarning,0823.1,5.00,000.00,028.9,027.4,000.0,037.4,030.5,21.6,-002.3,0011.47,0023.20,0010.03
2023-10-26 11:24:00,SystemResetWarning,0823.1,5.00,000.00,028.9,027.3,000.0,037.4,030.4,21.3,-002.5,0011.34,0021.90,0009.94
2023-10-26 11:25:00,SystemResetWarning,0823.1,5.00,000.00,028.9,027.3,000.0,037.4,030.4,21.2,-002.5,0011.25,0021.59,0009.83
2023-10-26 11:26:00,SystemResetWarning,0823.3,5.01,000.00,028.9,027.3,000.0,037.4,030.4,21.2,-002.2,0011.15,0020.97,0009.73
2023-10-26 11:27:00,SystemResetWarning,0823.3,5.00,000.00,028.9,027.3,000.0,037.3,030.4,21.2,-002.4,0011.04,0020.42,0009.61
2023-10-26 11:28:00,SystemResetWarning,0823.3,5.01,000.00,028.9,027.3,000.0,037.3,030.4,21.2,-002.6,0010.95,0019.30,0009.56
2023-10-26 11:29:00,SystemResetWarning,0823.3,5.01,000.00,028.9,027.3,000.0,037.3,030.4,21.3,-002.6,0010.83,0018.79,0009.48
2023-10-26 11:30:00,SystemResetWarning,0823.3,5.01,000.00,028.9,027.3,000.0,037.3,030.4,21.3,-002.4,0010.71,0018.42,0009.37
2023-10-26 11:31:00,SystemResetWarning,0823.3,5.00,000.00,028.8,027.3,000.0,037.3,030.4,21.3,-002.2,0010.65,0017.66,0009.30
2023-10-26 11:32:00,SystemResetWarning,0823.2,4.99,000.00,028.8,027.3,000.0,037.3,030.4,21.4,-002.3,0010.50,0016.68,0009.22
2023-10-26 11:33:00,SystemResetWarning,0823.3,4.99,000.00,028.8,027.3,000.0,037.3,030.4,21.4,-002.6,0010.40,0017.01,0009.14
2023-10-26 11:34:00,SystemResetWarning,0823.3,5.00,000.00,028.8,027.3,000.0,037.3,030.4,21.4,-002.8,0010.29,0016.82,0009.09
2023-10-26 11:35:00,SystemResetWarning,0823.3,4.99,000.00,028.8,027.2,000.0,037.3,030.3,21.4,-002.4,0010.24,0017.02,0009.05
2023-10-26 11:36:00,SystemResetWarning,0823.3,4.99,000.00,028.8,027.2,000.0,037.3,030.4,21.5,-002.5,0010.24,0017.15,0009.05
2023-10-26 11:37:00,SystemResetWarning,0823.3,5.00,000.00,028.8,027.3,000.0,037.3,030.4,21.5,-002.7,0010.23,0017.18,0009.05
2023-10-26 11:38:00,SystemResetWarning,0823.3,5.01,000.00,028.8,027.3,000.0,037.3,030.4,21.5,-002.7,0010.23,0017.12,0009.05
2023-10-26 11:39:00,SystemResetWarning,0823.3,5.01,000.00,028.8,027.3,000.0,037.3,030.4,21.5,-002.6,0010.25,0017.26,0009.05
2023-10-26 11:40:00,SystemResetWarning,0823.3,5.01,000.00,028.8,027.4,000.0,037.3,030.4,21.6,-002.4,0010.30,0017.15,0009.05
2023-10-26 11:41:00,SystemResetWarning,0823.3,4.99,000.00,028.8,027.4,000.0,037.3,030.4,21.5,-002.6,0010.29,0017.72,0009.08
2023-10-26 11:42:00,SystemResetWarning,0823.3,4.99,000.00,028.8,027.4,000.0,037.3,030.4,21.5,-002.6,0010.31,0018.16,0009.08
2023-10-26 11:43:00,SystemResetWarning,0823.4,4.99,000.00,028.8,027.4,000.0,037.3,030.4,21.6,-002.6,0010.40,0018.29,0009.11
2023-10-26 11:44:00,SystemResetWarning,0823.5,5.01,000.00,028.8,027.4,000.0,037.3,030.4,21.6,-002.3,0010.43,0017.92,0009.15
2023-10-26 11:45:00,SystemResetWarning,0823.4,5.00,000.00,028.8,027.4,000.0,037.3,030.4,21.6,-002.2,0010.53,0018.20,0009.19
2023-10-26 11:46:00,SystemResetWarning,0823.4,5.00,000.00,028.8,027.4,000.0,037.3,030.4,21.6,-002.4,0010.62,0018.16,0009.24
2023-10-26 11:47:00,SystemResetWarning,0823.4,5.00,000.00,028.8,027.4,000.0,037.3,030.4,21.6,-002.2,0010.69,0018.05,0009.29
2023-10-26 11:48:00,SystemResetWarning,0823.4,5.00,000.00,028.8,027.4,000.0,037.3,030.4,21.6,-001.8,0010.73,0018.23,0009.36
2023-10-26 11:49:00,SystemResetWarning,0823.5,5.00,000.00,028.8,027.4,000.0,037.3,030.4,21.6,-001.6,0010.88,0019.11,0009.44
2023-10-26 11:50:00,SystemResetWarning,0823.4,4.99,000.00,028.8,027.4,000.0,037.3,030.5,21.6,-001.6,0010.95,0019.57,0009.49
2023-10-26 11:51:00,SystemResetWarning,0823.4,4.99,000.00,028.8,027.4,000.0,037.3,030.4,21.7,-001.7,0010.99,0019.25,0009.57
2023-10-26 11:52:00,SystemResetWarning,0823.4,5.00,000.00,028.8,027.4,000.0,037.3,030.4,21.7,-001.6,0011.01,0018.47,0009.65
2023-10-26 11:53:00,SystemResetWarning,0823.5,5.00,000.00,028.8,027.4,000.0,037.3,030.4,21.8,-001.8,0011.04,0017.98,0009.74
2023-10-26 11:54:00,SystemResetWarning,0823.5,5.01,000.00,028.8,027.4,000.0,037.3,030.4,22.2,-001.9,0011.03,0018.03,0009.81
2023-10-26 11:55:00,SystemResetWarning,0823.5,5.01,000.00,028.8,027.4,000.0,037.3,030.4,22.0,-002.0,0011.04,0017.81,0009.87
2023-10-26 11:56:00,SystemResetWarning,0823.5,5.00,000.00,028.8,027.3,000.0,037.3,030.4,21.9,-002.1,0011.11,0017.68,0009.96
2023-10-26 11:57:00,SystemResetWarning,0823.5,4.99,000.00,028.8,027.3,000.0,037.3,030.4,21.9,-002.2,0011.10,0017.57,0010.00
2023-10-26 11:58:00,SystemResetWarning,0823.5,4.99,000.00,028.8,027.3,000.0,037.3,030.4,21.9,-002.3,0011.03,0017.52,0010.01
2023-10-26 11:59:00,SystemResetWarning,0823.5,5.00,000.00,028.8,027.3,000.0,037.3,030.3,21.9,-002.4,0010.97,0017.26,0009.99
